Location: Minneapolis
(44.9800°N, 93.2640°W)
Time: 00:55:03
(UTC-05:00)

Tiangong 2 - Visible Passes

Search period start: 18 October 2017 00:00
Search period end: 28 October 2017 00:00
Orbit: 388 x 392 km, 42.8° (Epoch: 17 October)

Date Brightness Start Highest point End Pass type
(mag) Time Alt. Az. Time Alt. Az. Time Alt. Az.
18 Oct 4.3 04:55:26 12° ESE 04:55:26 12° ESE 04:55:45 10° ESE visible
18 Oct 2.6 06:27:47 18° WSW 06:29:08 24° SSW 06:31:47 10° SSE visible
19 Oct 3.1 05:32:51 22° SSE 05:32:51 22° SSE 05:34:21 10° SE visible
20 Oct 3.2 06:10:19 15° SSW 06:10:19 15° SSW 06:12:01 10° S visible
